Location: Newark
(31.5350°N, 35.0986°E)
Time: 14:28:14
(UTC+00:00)

Vanguard 1 - Pass Details

Date: 30 September 2019
Orbit: 653 x 3830 km, 34.3° (Epoch: 14 October)

Event Time Altitude Azimuth Distance (km) Brightness Sun altitude
Rises 01:12:53 0° 281° (WNW) 7,776 - -30.2°
Reaches altitude 10° 01:18:00 10° 282° (WNW) 6,882 - -29.2°
Exits shadow 01:25:44 28° 284° (WNW) 5,535 13.3 -27.6°
Maximum altitude 01:42:05 90° 12° (NNE) 3,419 12.6 -24.2°
Drops below altitude 10° 01:58:39 10° 107° (ESE) 5,040 14.6 -20.7°
Sets 02:01:44 0° 108° (ESE) 5,712 15.1 -20.1°
